Regional Weather Roundup
Issued by NWS

Home | Current Version | Previous Version | Text Only | Print | Product List | Glossary On
Versions: 1 2 3 4 5 6 7 8 9 10 11 12 13 14 15 16 17 18 19 20 21 22 23 24 25 26 27 28 29 30 31 32 33 34 35 36 37 38 39 40 41 42 43 44 45 46 47 48 49 50
000
ASUS44 KEWX 231211
RWRTX
SOUTH TEXAS REGIONAL WEATHER ROUNDUP
NATIONAL WEATHER SERVICE AUSTIN/SAN ANTONIO TX
700 AM CDT SAT MAY 23 2015

NOTE: "FAIR" INDICATED FEW OR NO CLOUDS BELOW 12,000 FEET WITH NO
SIGNIFICANT WEATHER AND/OR OBSTRUCTIONS TO VISIBILITY.

* - THESE STATIONS ARE NOT NWS OR FAA STATIONS...AND ARE NOT SUBJECT
    TO NWS AND FAA QUALITY CONTROL.

TXZ171-172-183>190-231300-
TEXAS HILL COUNTRY AND EDWARDS PLATEAU

CITY           SKY/WX    TMP DP  RH WIND       PRES   REMARKS
JUNCTION       CLOUDY    73  69  87 S14       30.02R
6HR MIN TEMP:  71; 6HR MAX TEMP:  74; 6HR PCP:  0.01;

*LLANO         CLOUDY    73  72  94 S5        30.10R
BURNET         CLOUDY    72  70  93 SE7       30.11R
6HR MIN TEMP:  71; 6HR MAX TEMP:  73; 6HR PCP: TRACE;

*HORSESHOE BAY CLOUDY    72  71  95 SE3       30.08S
6HR MIN TEMP:  72; 6HR MAX TEMP:  74;

*KERRVILLE     CLOUDY    72  69  93 SE9       30.09S
6HR MIN TEMP:  72; 6HR MAX TEMP:  73;

*FREDERICKSBRG LGT RAIN  71  69  93 S6        30.09S
6HR MIN TEMP:  71; 6HR MAX TEMP:  73; 6HR PCP:  0.01;

*ROCKSPRINGS   LGT RAIN  66  66 100 SE13      30.08R
*BOERNE STAGE    N/A     70  70 100 S10       30.10R
*CASTROVILLE   CLOUDY    75  73  95 SE7       30.08R FOG
HONDO          CLOUDY    74  72  93 SE10      30.09R
6HR MIN TEMP:  74; 6HR MAX TEMP:  76; 6HR PCP: TRACE;

*UVALDE        CLOUDY    73  72  95 SE8G18    30.06R
6HR MIN TEMP:  73; 6HR MAX TEMP:  76; 6HR PCP:  0.35;

DEL RIO        CLOUDY    76  72  87 SE13      30.00R
6HR MIN TEMP:  75; 6HR MAX TEMP:  77; 6HR PCP: TRACE;

LAUGHLIN AFB   LGT RAIN  75  75 100 SE16      30.00R
CARRIZO SPRGS  CLOUDY    73  72  94 SE6       30.03R
$$

TXZ173-191>194-202-209-217>225-228-231300-
CENTRAL AND SOUTH CENTRAL TEXAS

CITY           SKY/WX    TMP DP  RH WIND       PRES   REMARKS
GEORGETOWN     CLOUDY    73  72  94 SE5       30.08S FOG
AUSTIN/BERGSTM TSTM      72  72 100 SE5       30.08S FOG
6HR MIN TEMP:  70; 6HR MAX TEMP:  74; 6HR PCP:  0.52;

AUSTIN/MABRY   CLOUDY    72  69  90 S5        30.09R THUNDER
6HR MIN TEMP:  72; 6HR MAX TEMP:  74; 6HR PCP: TRACE;

*AUSTIN/EXEC   LGT RAIN  73  73 100 SE7       30.09R
*LAGO VISTA    TSTM      73  71  95 SE5       30.10S
6HR MIN TEMP:  73; 6HR MAX TEMP:  73; 6HR PCP:  0.03;

SAN MARCOS     MOCLDY    73  72  94 SE10      30.08S FOG
NEW BRAUNFELS  CLOUDY    75  73  93 S6        30.07R FOG
6HR MIN TEMP:  74; 6HR MAX TEMP:  75; 6HR PCP:  0.15;

RANDOLPH AFB   CLOUDY    73  73 100 SE8       30.06S
PT SAN ANTONIO CLOUDY    75  73  94 SE8       30.06R
6HR MIN TEMP:  74; 6HR MAX TEMP:  76; 6HR PCP: TRACE;

SAN ANTONIO    CLOUDY    76  73  91 SE8       30.08R FOG
6HR MIN TEMP:  75; 6HR MAX TEMP:  77; 6HR PCP:  0.04;

STINSON FIELD  LGT RAIN  75  74  96 S5        30.05R
6HR MIN TEMP:  75; 6HR MAX TEMP:  77; 6HR PCP:  0.21;

*PLEASANTON    CLOUDY    75  73  92 SE9       30.06R
6HR MIN TEMP:  75; 6HR MAX TEMP:  77;

*LA GRANGE     CLOUDY    77  75  94 SE5       30.08R
6HR MIN TEMP:  75; 6HR MAX TEMP:  77;

*GIDDINGS      CLOUDY    74  72  92 S3        30.13R
6HR MIN TEMP:  73; 6HR MAX TEMP:  74;

*GONZALES      CLOUDY    77  76  97 SE7       30.07R
6HR MIN TEMP:  76; 6HR MAX TEMP:  77;

$$

TXZ163>164-176>182-195>201-210>213-226-227-235-231300-
SOUTHEAST TEXAS

CITY           SKY/WX    TMP DP  RH WIND       PRES   REMARKS
COLLEGE STN    CLOUDY    74  72  93 SE10      30.11R FOG
6HR MIN TEMP:  71; 6HR MAX TEMP:  74;

*BRYAN         CLOUDY    73  73  98 MISG      30.12S
6HR MIN TEMP:  69; 6HR MAX TEMP:  73;

*CALDWELL      CLOUDY    73  73 100 MISG      30.13R FOG
*CROCKETT      NOT AVBL
*BRENHAM       CLOUDY    76  75  96 SE6       30.11S
6HR MIN TEMP:  73; 6HR MAX TEMP:  76;

HUNTSVILLE     CLOUDY    73  70  90 SE3       30.13R FOG
6HR MIN TEMP:  71; 6HR MAX TEMP:  73;

CONROE         CLOUDY    72  70  93 SE6       30.13R FOG
6HR MIN TEMP:  71; 6HR MAX TEMP:  72;

HOUSTON BUSH   FOG       74  73  97 E6        30.11R VSB 1
6HR MIN TEMP:  73; 6HR MAX TEMP:  74;

HOUSTON HOBBY  CLOUDY    76  74  93 SE5       30.10R
6HR MIN TEMP:  76; 6HR MAX TEMP:  77;

*HOUSTON SW AP NOT AVBL
PEARLAND       CLOUDY    77  74  90 SE5       30.11R
6HR MIN TEMP:  76; 6HR MAX TEMP:  78;

HOUSTON HOOKS  CLOUDY    74  73  97 E3        30.11R FOG
6HR MIN TEMP:  74; 6HR MAX TEMP:  75;

ELLINGTON FLD  MOCLDY    75  73  94 E3        30.11R
SUGAR LAND     CLOUDY    76  74  93 E6        30.10R
6HR MIN TEMP:  76; 6HR MAX TEMP:  77;

*HOUSTON EXEC  CLOUDY    75  73  94 SE8       30.12R
*CLEVELAND MUN CLOUDY    71  71  99 CALM      30.14R FOG
6HR MIN TEMP:  69; 6HR MAX TEMP:  71;

*WHARTON       CLOUDY    74  73  97 E3        30.10R FOG
6HR MIN TEMP:  74; 6HR MAX TEMP:  75;

*COLUMBUS      CLOUDY    75  74  97 SE7       30.09R
6HR MIN TEMP:  74; 6HR MAX TEMP:  75;

$$

TXZ214>216-236>238-231300-
THE UPPER TEXAS COAST

CITY           SKY/WX    TMP DP  RH WIND       PRES   REMARKS
*ORANGE        PTCLDY    70  68  94 NE3       30.15S FOG
6HR MIN TEMP:  69; 6HR MAX TEMP:  71;

PORT ARTHUR    PTCLDY    74  72  93 E6        30.13R
6HR MIN TEMP:  72; 6HR MAX TEMP:  74;

GALVESTON      MOCLDY    79  76  90 SE14      30.11R
6HR MIN TEMP:  78; 6HR MAX TEMP:  79;

ANGLETON       PTCLDY    74  74 100 SE7       30.09R
6HR MIN TEMP:  74; 6HR MAX TEMP:  74;

*BAY CITY      CLOUDY    76  76 100 SE5       30.09R
PALACIOS       CLOUDY    78  74  87 SE12      30.08R
6HR MIN TEMP:  78; 6HR MAX TEMP:  78;

$$

TXZ229>234-239>247-231300-
TEXAS COASTAL BEND AND RIO GRANDE PLAINS

CITY           SKY/WX    TMP DP  RH WIND       PRES   REMARKS
VICTORIA       CLOUDY    75  75 100 SE9       30.08R
6HR MIN TEMP:  74; 6HR MAX TEMP:  77;

*BEEVILLE      CLOUDY    75  75 100 E3        30.06R FOG
6HR MIN TEMP:  75; 6HR MAX TEMP:  76;

ROCKPORT       CLOUDY    80  74  81 SE14      30.05R
6HR MIN TEMP:  80; 6HR MAX TEMP:  80;

*PORT ARANSAS  CLOUDY    79  75  86 SE15G21   30.05R
6HR MIN TEMP:  79; 6HR MAX TEMP:  80;

*PORT LAVACA   CLOUDY    75  73  94 SE5       30.08R
*INGLESIDE     CLOUDY    81  75  83 S10       30.05R
CORPUS CHRISTI CLOUDY    78  74  87 SE13      30.04R
6HR MIN TEMP:  78; 6HR MAX TEMP:  79;

CORPUS NAS     CLOUDY    79  75  87 SE12      30.05R
*ROBSTOWN      CLOUDY    78  78 100 SE7       30.05R
6HR MIN TEMP:  77; 6HR MAX TEMP:  78;

ALICE          MOCLDY    77  74  90 MISG      30.04R
6HR MIN TEMP:  77; 6HR MAX TEMP:  78;

KINGSVILLE NAS MOCLDY    79  78  97 SE5       30.04R
6HR MIN TEMP:  78; 6HR MAX TEMP:  79;

COTULLA        MOCLDY    76  73  91 SE8       30.04R
6HR MIN TEMP:  76; 6HR MAX TEMP:  78;

*FAITH RANCH     N/A     75  73  94 SE9       30.02S
LAREDO         MOCLDY    77  73  87 SE12      30.03R
6HR MIN TEMP:  77; 6HR MAX TEMP:  79;

$$

TXZ248>255-231300-
DEEP SOUTH TEXAS

CITY           SKY/WX    TMP DP  RH WIND       PRES   REMARKS
BROWNSVILLE    MOCLDY    79  76  90 SE7       30.04R
6HR MIN TEMP:  79; 6HR MAX TEMP:  80;

PORT ISABEL    CLEAR     79  75  87 SE10      30.03R FOG
6HR MIN TEMP:  79; 6HR MAX TEMP:  80;

*SOUTH PADRE     N/A     84  84 100 SW13      30.03R HX 104
HARLINGEN      PTCLDY    77  75  93 SE7       30.03R FOG
6HR MIN TEMP:  76; 6HR MAX TEMP:  78;

*HEBBRONVILLE    N/A     76  73  91 SE10      30.05R
MCALLEN        PTCLDY    79  75  87 SE10      30.02R FOG
6HR MIN TEMP:  79; 6HR MAX TEMP:  79;

*WESLACO       PTCLDY    77  74  90 SE8       30.02S



USA.gov is the U.S. government's official web portal to all federal, state and local government web resources and services.